Simultaneous Nadir Overpasses (SNOs) Predictions

Prediction of SNOs between GOES-15 and METOP-A Satellite Orbit:

Table of predicted SNOs for the next 14.0 days since TLE Epoch: 4/13/2017
Index Date Time (GOES-15) GOES-15 Lat,Lon METOP-A Lat,Lon Distance(km) Time Diff (sec)
1 04/15/2017 06:47:09 0.04,-135.45 -0.89,-139.68 481.44 80
2 04/16/2017 06:29:10 0.04,-135.46 0.23,-134.68 88.41 80
3 04/17/2017 18:48:01 -0.05,-135.48 0.79,-139.25 429.43 80
4 04/18/2017 18:24:42 -0.05,-135.48 -0.33,-134.25 139.73 80
5 04/20/2017 06:43:42 0.06,-135.46 -0.68,-138.85 386.00 80
6 04/21/2017 06:25:42 0.06,-135.47 0.44,-133.86 183.16 80
7 04/22/2017 18:44:34 -0.07,-135.48 0.59,-138.42 335.47 80
8 04/23/2017 18:21:14 -0.06,-135.47 -0.53,-133.43 233.07 80
9 04/25/2017 06:40:13 0.07,-135.44 -0.53,-138.02 293.96 80
10 04/26/2017 06:22:14 0.06,-135.44 0.60,-133.03 274.39 80
11 04/27/2017 18:41:05 -0.07,-135.44 0.43,-137.59 245.46 80




NCC Satellite Simultaneous Nadir Overpasses (SNOs) Prediction Service
